Zurück zum Katalog

STARLINK-4717

AktivKommunikationVLEO
NORAD 53705·PAYLOAD·🇺🇸 United States

Gestartet Sep 5, 2022 von Cape Canaveral Space Force Station

Loading…

Nächste Überflüge (nächste 24 Stunden)

TLE

AktuellSource: CelesTrak SupGP

Epoche: Sep 15, 2026, 02:48 UTC

1 53705C 22107F   26258.11715278  .00021623  00000+0  61880-3 0  2584
2 53705  53.1591 110.6828 0001024  90.2535 349.9782 15.35379757    18

Verfolge STARLINK-4717 in Echtzeit mit AllMySat

Download on the App Store